ONEWEB-0109 (47259 NORAD) Tracking and Keplerian Element Data

This shows tracking and keplerian element data for the satellite.

Feedback or suggestion? Click here.




ElementValue
Catalog47259
NameONEWEB-0109
Epoch Orbit172
Epoch Day62.91667824
Epoch Year2021
RAAN15.4932
Inclination87.5438
Eccentricity0.0010624
Argument of Perigee32.0777
Mean Anonmoly325.6734
Mean Motion13.84480561
Decay Rate1.6E-07
L11 47259U 20100B 21062.91667824 .00000016 00000-0 00000-0 0 9991
L22 47259 87.5438 15.4932 0010624 32.0777 325.6734 13.84480561 1727

Live tracking and technical data element details for ONEWEB-0109 (NORAD 47259). ONEWEB-0109 can be tracked NOW for your location showing map with azimuth and elevation plus other details from your city location.

Track the satellite on the map from your city or location and see movement details for azimuth, elevation, latitude, longitude, range, height, and movement on the map or in text.







IsCatalogInMostPopularTable: catalog: 47259, numindb: 21
Update: records affected: 1



GetName: 47259 ONEWEB-0109

Hit Count: updated at: Fri, 05 Mar 2021 07:30:48 GMT